This demonstration page uses our WeatherBlox Daily Observations layout. Learn more.

Left ArrowRight Arrow

38.89511, -77.03637

Hourly Observations for May 26, 2017

Temp ( °F °C ) Dew Point ( °F °C ) Humidity (%) Winds ( mph kmh ) Pressure ( in mb ) Visibility ( mi km ) Precip ( " mm )
12:52 am 00:52 Mostly Clear 60 15.6 59 15 96 96 SW 7 11 29.57 1001 10 16 0.00 0.00
1:52 am 01:52 Mostly Clear 59 15 58 14.4 96 96 SSW 3 6 29.58 1002 10 16 0.00 0.00
2:52 am 02:52 Mostly Clear 59 15 57 13.9 93 93 SSW 7 11 29.61 1003 10 16 0.00 0.00
3:52 am 03:52 Mostly Cloudy 58 14.4 57 13.9 97 97 SSW 6 9 29.62 1003 10 16 0.00 0.00
4:52 am 04:52 Mostly Cloudy 60 15.6 57 13.9 90 90 SW 7 11 29.63 1004 10 16 0.00 0.00
5:52 am 05:52 Mostly Cloudy 60 15.6 56 13.3 86 86 SW 7 11 29.66 1005 10 16 0.00 0.00
6:52 am 06:52 Mostly Cloudy 61 16.1 56 13.3 84 84 SW 9 15 29.69 1005 10 16 0.00 0.00
7:52 am 07:52 Partly Cloudy 64 17.8 58 14.4 81 81 WSW 10 17 29.71 1006 10 16 0.00 0.00
8:52 am 08:52 Partly Cloudy 70 21.1 59 15 68 68 WSW 10 17 29.73 1007 10 16 0.00 0.00
9:52 am 09:52 Mostly Cloudy 70 21.1 58 14.4 66 66 W 13 20 29.75 1007 10 16 0.00 0.00
10:52 am 10:52 Mostly Cloudy 71 21.7 59 15 66 66 W 15 24 29.76 1008 10 16 0.00 0.00
11:52 am 11:52 Mostly Cloudy 71 21.7 58 14.4 63 63 W 16 26 29.77 1008 10 16 0.00 0.00
12:52 pm 12:52 Mostly Cloudy 75 23.9 59 15 58 58 WNW 20 31 29.76 1008 10 16 0.00 0.00
1:52 pm 13:52 Mostly Cloudy 77 25 55 12.8 47 47 WNW 20 31 29.76 1008 10 16 0.00 0.00
2:52 pm 14:52 Mostly Cloudy 76 24.4 55 12.8 48 48 WNW 18 30 29.77 1008 10 16 0.00 0.00
3:52 pm 15:52 Mostly Cloudy 75 23.9 55 12.8 50 50 WNW 16 26 29.77 1008 10 16 0.00 0.00
4:52 pm 16:52 Mostly Cloudy 75 23.9 53 11.7 46 46 WNW 18 30 29.78 1009 10 16 0.00 0.00
5:52 pm 17:52 Mostly Cloudy 75 23.9 54 12.2 48 48 NW 10 17 29.80 1009 10 16 0.00 0.00
6:52 pm 18:52 Mostly Cloudy 75 23.9 54 12.2 48 48 NNW 13 20 29.83 1010 10 16 0.00 0.00
7:52 pm 19:52 Partly Cloudy 73 22.8 55 12.8 53 53 N 9 15 29.85 1011 10 16 0.00 0.00
8:52 pm 20:52 Partly Cloudy 70 21.1 55 12.8 59 59 NNW 10 17 29.87 1012 10 16 0.00 0.00
9:52 pm 21:52 Clear 69 20.6 55 12.8 61 61 N 5 7 29.89 1012 10 16 0.00 0.00
10:52 pm 22:52 Clear 68 20 54 12.2 61 61 N 3 6 29.90 1013 10 16 0.00 0.00
11:52 pm 23:52 Mostly Clear 67 19.4 55 12.8 66 66 Calm 29.91 1013 10 16 0.00 0.00

Powered by AerisWeather